Location: St. Louis
(38.6270°N, 90.1994°W)
Time: 11:40:29
(UTC-06:00)

Transit 2A Rocket - All Passes

Search period start: 06 December 2021 00:00
Search period end: 16 December 2021 00:00
Orbit: 584 x 918 km, 66.7° (Epoch: 05 December)

Date Brightness Start Highest point End Pass type
(mag) Time Alt. Az. Time Alt. Az. Time Alt. Az.
06 Dec - 05:36:49 10° SSE 05:41:00 22° ESE 05:45:24 10° ENE visible
06 Dec - 07:17:37 10° SW 07:23:07 54° WNW 07:29:03 10° NNE daylight
06 Dec - 09:05:19 10° NW 09:07:13 11° NW 09:09:09 10° NNW daylight
06 Dec - 14:21:28 10° N 14:25:26 18° NE 14:29:16 10° E daylight
06 Dec - 16:02:53 10° NNW 16:08:57 89° WSW 16:14:33 10° SSE daylight
06 Dec - 17:48:44 10° W 17:50:33 11° W 17:52:20 10° WSW visible
07 Dec - 04:56:42 10° ESE 04:58:45 12° E 05:00:51 10° E visible
07 Dec - 06:34:46 10° SSW 06:40:22 89° NW 06:46:26 10° NNE visible
07 Dec - 08:20:10 10° W 08:23:55 17° NW 08:27:49 10° N daylight
07 Dec - 13:40:03 10° NNE 13:42:09 12° NE 13:44:13 10° ENE daylight
07 Dec - 15:20:16 10° NNW 15:26:13 56° ENE 15:31:44 10° SE daylight
07 Dec - 17:04:00 10° WNW 17:08:18 21° WSW 17:12:24 10° SSW visible
08 Dec - 05:52:21 10° S 05:57:47 54° ESE 06:03:37 10° NE visible
08 Dec - 07:36:02 10° WSW 07:40:47 26° NW 07:45:47 10° N daylight
08 Dec - 14:37:50 10° NNW 14:43:19 35° NE 14:48:28 10° ESE daylight
08 Dec - 16:20:33 10° NW 16:25:57 37° WSW 16:30:59 10° S daylight
09 Dec - 05:10:27 10° SSE 05:15:19 31° ESE 05:20:30 10° NE visible
09 Dec - 06:52:27 10° WSW 06:57:47 40° NW 07:03:28 10° NNE daylight
09 Dec - 13:55:36 10° N 14:00:17 23° NE 14:04:44 10° E daylight
09 Dec - 15:37:32 10° NW 15:43:28 64° WSW 15:48:55 10° SSE daylight
10 Dec - 04:29:18 10° SE 04:32:59 18° ESE 04:36:51 10° ENE visible
10 Dec - 06:09:19 10° SW 06:14:56 65° WNW 06:20:59 10° NNE visible
10 Dec - 07:56:02 10° WNW 07:58:50 13° NW 08:01:42 10° N daylight
10 Dec - 13:13:42 10° N 13:17:06 15° NE 13:20:23 10° ENE daylight
10 Dec - 14:54:47 10° NNW 15:00:49 77° ENE 15:06:22 10° SSE daylight
10 Dec - 16:39:34 10° WNW 16:42:34 14° WSW 16:45:28 10° SW daylight
11 Dec - 05:26:38 10° SSW 05:32:15 77° ESE 05:38:17 10° NNE visible
11 Dec - 07:11:23 10° W 07:15:36 20° NW 07:19:59 10° N daylight
11 Dec - 14:12:13 10° NNW 14:18:01 47° NE 14:23:24 10° SE daylight
11 Dec - 15:55:32 10° NW 16:00:17 26° WSW 16:04:45 10° SSW daylight
12 Dec - 04:44:23 10° S 04:49:42 45° ESE 04:55:23 10° NE visible
12 Dec - 06:27:28 10° WSW 06:32:31 30° NW 06:37:50 10° N visible
12 Dec - 13:29:51 10° N 13:35:04 30° NE 13:39:59 10° ESE daylight
12 Dec - 15:12:17 10° NW 15:17:53 45° WSW 15:23:04 10° S daylight
13 Dec - 04:02:42 10° SSE 04:07:17 26° ESE 04:12:07 10° NE visible
13 Dec - 05:44:04 10° SW 05:49:35 48° NW 05:55:26 10° NNE visible
13 Dec - 07:32:56 10° NW 07:33:48 10° NW 07:34:41 10° NNW daylight
13 Dec - 12:47:43 10° N 12:51:58 19° NE 12:56:03 10° E daylight
13 Dec - 14:29:22 10° NNW 14:35:21 77° WSW 14:40:50 10° SSE daylight
14 Dec - 03:22:00 10° SE 03:25:00 15° ESE 03:28:06 10° ENE visible
14 Dec - 05:01:06 10° SSW 05:06:47 78° WNW 05:12:52 10° NNE visible
14 Dec - 06:47:02 10° WNW 06:50:29 16° NW 06:54:00 10° N daylight
14 Dec - 12:06:03 10° N 12:08:43 13° NE 12:11:20 10° ENE daylight
14 Dec - 13:46:41 10° NNW 13:52:39 64° ENE 13:58:07 10° SE daylight
14 Dec - 15:30:49 10° WNW 15:34:35 18° WSW 15:38:10 10° SW daylight
15 Dec - 04:18:34 10° SSW 04:24:08 64° ESE 04:30:07 10° NE visible
15 Dec - 06:02:42 10° W 06:07:18 23° NW 06:12:05 10° N visible
15 Dec - 13:04:11 10° NNW 13:09:47 39° NE 13:15:00 10° ESE daylight
15 Dec - 14:47:10 10° NW 14:52:15 31° WSW 14:57:00 10° SSW daylight
